Temp
-7 -7 -6 -6 -6 -6 -7 -7 -7 -7 -7 -7 -7 -7 -7 -8 -8 -8 -8 -8 -8 -8 -8 -8 -8 -8 -7 -7 -7 -7 -7 -7 -7 -7 -7 -7 -7 -7 -7 -8 -8 -8 -8
-7 -7 -6 -6 -6 -6 -6 -7 -7 -7 -7 -7 -7 -7 -7 -8 -8 -7 -7 -7 -7 -7 -7 -7 -8 -8 -7 -7 -7 -7 -7 -7 -7 -7 -8 -8 -8 -8 -8 -8 -8 -7 -8
-7 -7 -6 -6 -6 -6 -6 -6 -7 -7 -7 -7 -7 -7 -7 -7 -7 -7 -7 -7 -7 -7 -7 -7 -7 -7 -7 -7 -7 -7 -7 -7 -8 -8 -8 -8 -8 -8 -8 -8 -8 -7 -7
-6 -6 -6 -6 -6 -6 -6 -6 -6 -7 -7 -7 -7 -7 -7 -7 -7 -7 -7 -7 -7 -7 -7 -7 -7 -7 -7 -8 -8 -8 -8 -8 -9 -9 -9 -8 -8 -8 -8 -8 -8 -8 -8
-6 -6 -6 -6 -6 -6 -6 -6 -6 -6 -6 -7 -7 -7 -7 -7 -7 -7 -7 -7 -7 -7 -7 -7 -7 -7 -8 -8 -8 -8 -9 -9 -9 -9 -8 -8 -8 -8 -8 -8 -8 -8 -8
-6 -6 -6 -6 -6 -6 -6 -6 -6 -6 -6 -7 -7 -7 -7 -7 -7 -7 -7 -7 -8 -8 -8 -8 -8 -8 -8 -8 -9 -9 -9 -8 -8 -8 -8 -8 -8 -8 -8 -8 -8 -8 -8
-6 -6 -6 -6 -6 -6 -6 -6 -6 -6 -6 -6 -6 -6 -7 -7 -7 -7 -7 -7 -8 -8 -8 -8 -8 -8 -8 -9 -9 -9 -9 -9 -9 -8 -8 -8 -8 -8 -8 -8 -8 -8 -8
-6 -5 -6 -6 -5 -6 -6 -6 -6 -6 -6 -6 -6 -6 -6 -7 -7 -7 -7 -7 -8 -8 -8 -8 -9 -9 -8 -8 -8 -9 -9 -9 -8 -8 -8 -8 -8 -8 -8 -8 -8 -8 -8
-6 -6 -5 -6 -6 -6 -6 -5 -6 -6 -6 -6 -6 -6 -6 -7 -7 -7 -7 -7 -8 -8 -8 -8 -9 -9 -9 -9 -9 -9 -9 -9 -9 -9 -9 -9 -8 -8 -8 -8 -8 -8 -8
-6 -6 -5 -5 -5 -6 -6 -6 -6 -6 -6 -6 -6 -6 -7 -7 -7 -7 -7 -7 -8 -8 -8 -8 -8 -9 -9 -9 -9 -9 -9 -9 -9 -9 -9 -9 -9 -9 -8 -8 -8 -8 -8
-6 -6 -6 -5 -6 -6 -6 -6 -6 -6 -6 -6 -7 -6 -6 -7 -7 -7 -7 -8 -8 -8 -8 -8 -9 -9 -9 -9 -9 -9 -9 -9 -9 -9 -9 -9 -9 -9 -8 -8 -8 -8 -8
-6 -6 -6 -6 -6 -6 -6 -6 -6 -6 -6 -6 -6 -7 -7 -7 -7 -7 -7 -8 -8 -8 -8 -8 -9 -9 -9 -10 -10 -10 -9 -9 -9 -9 -9 -9 -9 -8 -9 -8 -8 -7 -7
-6 -6 -6 -6 -6 -6 -6 -6 -6 -6 -6 -6 -6 -6 -7 -7 -7 -7 -8 -8 -8 -8 -8 -9 -9 -9 -9 -10 -9 -9 -9 -9 -9 -9 -8 -8 -9 -9 -8 -8 -7 -7 -7
-6 -6 -6 -6 -6 -6 -6 -6 -6 -6 -6 -6 -6 -6 -6 -7 -7 -8 -8 -8 -8 -8 -8 -9 -9 -9 -9 -9 -9 -9 -8 -9 -9 -8 -8 -8 -8 -8 -7 -7 -7 -7 -7
-6 -6 -6 -6 -6 -6 -6 -6 -6 -6 -6 -7 -7 -7 -7 -7 -7 -7 -8 -7 -7 -7 -8 -8 -8 -9 -9 -9 -9 -9 -8 -9 -9 -8 -8 -9 -9 -9 -8 -8 -7 -7 -7
-6 -6 -6 -6 -6 -6 -6 -6 -6 -6 -6 -6 -7 -7 -7 -7 -7 -7 -7 -7 -7 -7 -7 -8 -8 -8 -8 -8 -8 -8 -8 -9 -8 -8 -8 -8 -8 -8 -8 -7 -7 -7 -7
-6 -6 -5 -6 -5 -5 -6 -6 -6 -6 -6 -6 -7 -7 -7 -7 -7 -7 -7 -7 -7 -7 -7 -7 -7 -8 -8 -8 -8 -8 -8 -8 -8 -8 -8 -8 -8 -7 -7 -7 -7 -7 -7
-5 -5 -5 -6 -6 -6 -6 -6 -6 -6 -6 -6 -6 -7 -7 -7 -7 -7 -7 -6 -7 -7 -7 -7 -7 -7 -7 -7 -7 -8 -7 -7 -7 -7 -8 -8 -7 -7 -7 -7 -7 -7 -7
-5 -5 -5 -5 -5 -6 -6 -6 -6 -6 -6 -6 -7 -7 -7 -6 -7 -7 -7 -6 -6 -6 -7 -7 -7 -7 -7 -7 -7 -7 -7 -7 -7 -8 -8 -8 -7 -7 -7 -7 -7 -7 -7
-5 -5 -5 -5 -5 -5 -5 -6 -6 -6 -6 -6 -6 -7 -7 -7 -7 -6 -7 -7 -6 -6 -7 -7 -7 -7 -7 -7 -7 -7 -7 -7 -8 -8 -8 -8 -8 -8 -8 -8 -7 -7 -7
-6 -5 -5 -5 -5 -5 -6 -6 -6 -6 -6 -6 -6 -7 -7 -7 -7 -7 -6 -6 -6 -6 -6 -7 -7 -7 -7 -7 -7 -7 -7 -7 -8 -8 -9 -8 -9 -8 -8 -8 -7 -7 -7
-6 -6 -5 -5 -5 -5 -6 -6 -6 -6 -6 -6 -6 -6 -7 -7 -7 -7 -6 -6 -6 -6 -6 -6 -6 -7 -7 -7 -7 -7 -7 -7 -8 -8 -9 -9 -9 -8 -8 -8 -8 -7 -7
-6 -6 -6 -5 -5 -6 -6 -6 -6 -6 -6 -6 -6 -6 -6 -7 -7 -7 -7 -6 -6 -6 -6 -6 -6 -6 -6 -6 -7 -7 -7 -7 -8 -8 -8 -9 -9 -8 -8 -8 -8 -7 -7
-6 -6 -6 -6 -6 -6 -6 -6 -6 -6 -6 -6 -6 -6 -6 -6 -6 -7 -7 -7 -7 -6 -6 -6 -6 -6 -6 -7 -7 -7 -7 -8 -8 -8 -8 -8 -9 -8 -8 -8 -8 -7 -6
-5 -5 -6 -6 -6 -6 -6 -6 -6 -5 -6 -6 -6 -6 -6 -5 -6 -6 -6 -6 -6 -7 -6 -6 -6 -6 -6 -7 -7 -7 -7 -8 -8 -8 -8 -8 -9 -9 -8 -8 -8 -7 -6
-5 -5 -5 -6 -6 -6 -6 -6 -6 -5 -5 -6 -6 -6 -6 -6 -6 -5 -5 -5 -6 -7 -6 -6 -6 -7 -7 -7 -7 -7 -7 -8 -8 -8 -9 -9 -9 -8 -8 -8 -8 -7 -6
Height
5925 5925 5926 5927 5927 5927 5928 5928 5929 5929 5928 5928 5929 5929 5927 5930 5930 5929 5928 5929 5927 5927 5927 5927 5928 5928 5928 5928 5927 5927 5926 5926 5926 5925 5924 5923 5922 5922 5920 5918 5915 5913 5911
5928 5928 5929 5929 5929 5930 5931 5931 5932 5933 5932 5932 5932 5932 5932 5934 5933 5932 5931 5931 5931 5930 5930 5931 5932 5931 5932 5931 5931 5931 5930 5930 5929 5929 5928 5927 5927 5925 5923 5920 5918 5916 5913
5931 5931 5931 5931 5932 5933 5933 5933 5934 5936 5936 5935 5935 5936 5937 5937 5936 5935 5934 5933 5934 5934 5933 5934 5934 5935 5935 5934 5934 5935 5934 5934 5934 5933 5932 5931 5930 5928 5925 5923 5920 5918 5915
5932 5934 5932 5933 5935 5936 5936 5936 5936 5938 5938 5937 5938 5939 5941 5940 5940 5939 5938 5937 5937 5937 5937 5937 5938 5938 5939 5938 5938 5938 5939 5938 5938 5937 5936 5934 5933 5930 5928 5925 5923 5920 5916
5934 5935 5935 5935 5936 5936 5937 5939 5939 5939 5940 5939 5941 5943 5943 5943 5943 5942 5941 5941 5941 5940 5940 5940 5941 5942 5942 5941 5942 5942 5942 5942 5942 5941 5939 5938 5935 5933 5930 5927 5924 5921 5918
5935 5936 5937 5937 5937 5937 5939 5940 5941 5941 5942 5943 5945 5945 5945 5945 5945 5945 5945 5944 5944 5945 5944 5944 5944 5945 5945 5945 5945 5946 5946 5946 5945 5944 5942 5940 5938 5936 5933 5930 5927 5925 5921
5937 5939 5939 5940 5940 5940 5941 5941 5943 5943 5945 5947 5947 5947 5947 5948 5948 5948 5949 5948 5948 5948 5948 5948 5948 5948 5948 5949 5949 5949 5949 5949 5948 5947 5945 5943 5941 5938 5936 5934 5931 5927 5924
5937 5940 5941 5942 5942 5942 5943 5945 5946 5946 5947 5948 5949 5948 5949 5950 5950 5951 5952 5952 5952 5952 5952 5952 5953 5954 5953 5953 5953 5952 5952 5952 5951 5950 5948 5946 5944 5941 5938 5936 5933 5929 5926
5940 5942 5942 5943 5943 5944 5946 5947 5947 5948 5948 5949 5950 5950 5950 5952 5953 5953 5955 5955 5955 5956 5956 5956 5956 5957 5956 5956 5956 5955 5955 5954 5954 5952 5950 5948 5946 5944 5941 5938 5935 5932 5928
5940 5942 5943 5944 5946 5947 5948 5949 5949 5948 5949 5950 5951 5952 5952 5954 5955 5956 5958 5958 5958 5959 5960 5960 5960 5960 5959 5959 5959 5958 5957 5957 5956 5955 5953 5951 5949 5946 5943 5940 5937 5934 5930
5940 5943 5945 5946 5946 5947 5948 5949 5950 5950 5951 5951 5952 5953 5954 5956 5957 5959 5960 5961 5962 5962 5963 5964 5964 5964 5963 5962 5962 5961 5961 5960 5960 5957 5956 5955 5952 5949 5945 5941 5938 5935 5931
5941 5944 5946 5948 5947 5948 5949 5950 5950 5951 5952 5953 5954 5955 5957 5958 5960 5961 5963 5964 5965 5966 5967 5967 5967 5967 5967 5966 5965 5964 5964 5962 5962 5960 5959 5956 5953 5950 5947 5944 5940 5937 5933
5941 5944 5946 5948 5948 5948 5950 5951 5951 5951 5953 5955 5956 5956 5958 5960 5961 5963 5965 5966 5966 5968 5968 5969 5969 5969 5969 5968 5968 5967 5966 5964 5964 5963 5961 5957 5953 5951 5950 5947 5942 5938 5934
5941 5943 5946 5947 5949 5950 5951 5951 5952 5953 5954 5956 5958 5959 5960 5961 5963 5964 5966 5967 5968 5968 5969 5969 5970 5970 5970 5969 5969 5969 5968 5966 5966 5964 5962 5958 5955 5954 5951 5947 5943 5939 5935
5941 5942 5946 5947 5949 5950 5951 5952 5954 5955 5956 5958 5959 5961 5963 5964 5965 5965 5966 5967 5968 5969 5970 5970 5971 5972 5971 5971 5970 5969 5969 5968 5967 5965 5962 5959 5957 5955 5952 5948 5944 5940 5935
5940 5942 5945 5946 5948 5950 5952 5953 5954 5955 5956 5957 5959 5961 5963 5964 5965 5967 5968 5969 5969 5970 5971 5972 5972 5972 5972 5972 5971 5970 5969 5968 5967 5965 5962 5960 5958 5955 5952 5949 5945 5941 5936
5939 5941 5943 5945 5947 5948 5950 5952 5954 5955 5957 5957 5958 5960 5962 5964 5966 5967 5969 5970 5971 5971 5972 5972 5972 5972 5972 5972 5971 5970 5969 5968 5966 5964 5962 5960 5958 5955 5952 5949 5945 5940 5935
5937 5939 5940 5943 5945 5947 5949 5951 5953 5954 5955 5957 5957 5959 5960 5962 5964 5966 5967 5969 5970 5971 5971 5972 5972 5972 5972 5971 5971 5969 5968 5967 5966 5964 5961 5960 5957 5954 5951 5948 5943 5940 5935
5935 5938 5939 5940 5942 5945 5947 5949 5951 5953 5955 5956 5957 5958 5959 5960 5962 5964 5965 5967 5968 5969 5970 5970 5970 5970 5970 5970 5968 5968 5967 5966 5964 5962 5960 5958 5955 5952 5949 5946 5942 5938 5934
5931 5934 5937 5938 5939 5942 5944 5946 5947 5950 5952 5954 5955 5956 5957 5957 5959 5960 5961 5963 5965 5965 5966 5967 5967 5968 5967 5967 5967 5966 5965 5964 5962 5960 5958 5956 5952 5949 5947 5944 5939 5935 5932
5926 5929 5932 5934 5937 5939 5941 5943 5944 5947 5949 5950 5952 5953 5953 5954 5955 5956 5958 5959 5961 5962 5963 5964 5964 5964 5964 5964 5964 5963 5963 5960 5957 5957 5955 5953 5950 5947 5944 5941 5937 5933 5930
5920 5924 5927 5931 5934 5936 5937 5938 5940 5942 5944 5947 5949 5950 5950 5951 5952 5953 5954 5955 5956 5958 5959 5960 5960 5961 5960 5961 5961 5960 5959 5958 5957 5954 5954 5950 5948 5944 5942 5939 5936 5932 5928
5913 5918 5922 5925 5928 5931 5933 5934 5936 5937 5940 5942 5945 5946 5947 5947 5948 5948 5949 5950 5952 5953 5954 5954 5955 5954 5954 5955 5956 5956 5956 5955 5954 5952 5950 5948 5945 5942 5939 5936 5933 5929 5925
5905 5910 5915 5918 5922 5925 5927 5929 5931 5932 5935 5937 5939 5941 5942 5942 5942 5943 5944 5945 5946 5947 5948 5949 5950 5949 5951 5950 5952 5952 5951 5952 5950 5948 5946 5944 5942 5939 5936 5932 5928 5924 5921
5898 5902 5906 5910 5915 5919 5921 5922 5924 5927 5929 5931 5933 5935 5936 5937 5938 5938 5940 5941 5942 5943 5943 5943 5944 5944 5945 5945 5945 5947 5946 5947 5946 5945 5943 5941 5938 5935 5932 5929 5924 5920 5916
5891 5893 5897 5902 5906 5910 5912 5915 5917 5920 5923 5926 5928 5929 5930 5932 5932 5933 5935 5936 5937 5936 5935 5936 5937 5938 5938 5938 5939 5941 5941 5940 5940 5939 5937 5935 5933 5931 5928 5924 5920 5915 5913
Wind_Speed
13 11 11 14 15 17 18 16 16 15 15 15 16 17 20 17 15 16 16 15 16 17 16 18 18 18 19 20 20 21 21 23 23 24 25 27 27 26 24 24 27 27 27
11 9 9 13 14 13 15 17 16 16 16 15 17 17 18 15 16 17 19 18 16 15 15 16 17 17 18 18 20 22 24 24 23 24 26 28 28 26 25 25 26 25 25
12 10 11 12 12 13 13 15 17 16 15 16 19 17 14 14 16 19 20 21 20 18 17 18 18 18 19 22 24 24 23 22 23 25 26 26 25 25 23 25 26 26 27
12 11 12 10 14 11 12 13 14 14 16 17 18 16 12 14 15 17 19 21 23 25 23 22 23 22 23 23 22 23 23 23 24 24 24 24 23 25 25 26 26 27 28
10 11 11 9 13 12 13 12 11 13 13 15 15 13 12 14 14 16 18 20 20 23 23 24 24 23 22 22 22 24 24 24 24 24 24 23 24 24 25 26 26 28 29
12 12 10 10 10 11 11 13 11 11 13 14 13 12 13 13 13 15 16 18 17 19 24 23 22 21 23 25 26 26 25 24 24 23 23 24 23 24 25 26 27 27 28
12 13 11 8 10 10 10 10 9 12 11 10 10 11 14 13 12 14 13 15 17 20 22 21 23 25 27 28 27 26 24 22 22 23 24 24 23 24 25 26 26 27 28
9 11 12 11 11 11 10 9 8 10 11 10 7 7 11 14 13 13 13 16 19 21 21 24 24 25 26 24 24 22 21 21 22 22 22 23 24 25 26 27 28 29 30
10 10 13 11 11 11 11 10 10 9 11 10 9 6 7 13 13 13 13 16 18 20 23 23 24 23 23 20 20 19 19 19 20 22 22 24 26 26 26 29 30 32 32
12 8 10 12 11 11 12 10 9 10 9 11 10 8 9 13 13 13 13 14 14 19 20 20 19 18 18 18 18 18 18 18 20 21 22 23 25 25 28 29 32 33 34
11 10 8 8 9 7 8 10 9 11 8 10 12 10 12 14 13 12 11 11 10 17 16 15 14 14 15 16 16 16 17 16 18 20 21 19 24 25 28 30 32 34 35
11 9 7 6 8 7 9 10 11 11 9 10 14 15 13 14 12 10 10 9 9 16 14 14 13 12 12 11 11 13 14 14 17 19 18 21 19 21 28 31 31 33 35
12 9 7 7 7 8 7 9 9 12 11 11 15 19 17 15 14 12 11 10 14 16 13 12 10 10 9 8 8 10 12 14 16 17 16 24 22 25 27 27 30 32 35
13 11 9 8 10 9 9 9 8 10 12 12 14 15 17 17 15 14 13 12 16 17 14 11 9 7 7 6 6 9 11 13 15 15 19 23 26 26 28 30 31 32 34
11 12 12 12 10 9 9 9 8 7 9 12 14 13 11 10 12 13 11 13 15 16 14 11 8 5 4 5 5 7 7 9 12 13 18 19 20 23 27 29 30 32 35
13 11 12 12 11 9 7 7 7 6 6 9 12 14 14 13 12 12 11 12 14 14 13 10 7 4 1 2 3 4 6 8 10 15 18 20 20 22 26 28 30 31 34
13 14 13 11 10 11 8 5 5 4 4 4 8 13 13 12 12 13 13 13 14 14 12 9 6 4 3 2 4 4 6 8 11 14 17 19 20 21 24 25 27 30 32
16 16 14 13 12 11 9 7 4 3 3 3 5 8 13 14 14 13 13 12 12 12 12 9 7 6 5 6 6 7 8 9 11 13 15 18 20 23 26 27 28 30 32
20 18 18 17 16 13 11 9 6 4 3 4 5 7 9 13 15 15 15 15 14 13 12 12 11 9 9 10 11 12 11 12 14 14 17 19 21 24 27 30 30 31 31
25 23 22 21 19 17 15 12 10 9 7 6 7 8 10 11 14 16 17 17 17 17 17 16 15 15 14 14 14 13 15 15 16 16 18 20 24 27 29 31 32 30 31
28 26 25 25 23 21 19 17 16 14 12 9 9 9 12 13 14 17 18 19 20 21 20 20 20 20 20 17 16 17 17 18 20 16 19 22 26 27 28 31 33 31 29
33 31 28 27 26 24 23 21 20 20 18 14 12 11 12 13 15 17 20 22 22 23 23 22 23 22 24 21 19 20 20 20 17 20 17 21 25 31 30 33 35 31 28
36 33 31 29 26 25 25 24 24 22 20 19 16 14 14 14 16 18 20 21 23 25 25 26 26 27 27 26 23 23 22 20 18 20 19 22 25 28 31 31 30 29 26
39 37 35 33 31 28 27 26 26 24 22 22 20 18 18 17 17 18 20 21 22 24 28 29 28 31 28 29 26 23 22 20 20 23 23 24 25 30 31 32 33 29 26
43 39 39 38 34 32 31 29 28 25 24 24 24 24 22 21 21 20 19 20 23 24 25 28 31 31 30 31 29 25 24 21 21 23 25 23 27 30 30 34 32 29 26
46 45 43 40 37 37 36 34 33 30 27 26 26 26 26 25 27 26 23 23 22 26 28 27 27 31 33 33 31 27 25 23 25 25 25 24 28 30 34 37 33 30 26
Wind_Direction
92 89 76 79 84 87 102 97 97 101 101 100 95 92 89 86 84 85 85 85 92 96 101 105 104 100 94 88 83 85 83 83 83 79 77 74 71 63 55 55 55 53 44
92 94 94 91 92 92 96 98 98 102 103 103 102 94 93 94 90 92 90 87 85 93 96 97 97 96 92 85 87 88 85 83 82 78 76 70 63 54 54 50 43 38 33
103 85 99 100 100 103 97 92 96 100 99 104 107 99 100 94 92 92 90 90 92 90 92 93 95 95 93 92 90 87 86 84 82 80 74 67 57 58 51 47 41 36 34
99 94 97 111 108 106 103 97 94 97 100 95 103 106 109 102 101 90 88 94 95 93 94 95 95 96 95 91 87 89 90 85 81 74 68 62 56 54 49 45 40 35 32
107 99 92 100 116 114 105 106 103 94 92 92 101 115 112 103 103 97 93 98 98 101 103 101 99 97 94 90 88 87 88 83 77 69 64 57 51 49 46 43 38 34 34
114 106 103 106 110 112 120 119 121 113 108 104 113 115 110 100 96 99 100 104 100 104 106 104 100 97 96 93 91 89 84 77 71 64 58 54 53 49 47 43 40 38 36
126 128 133 117 123 124 130 126 139 130 123 123 117 107 107 109 100 100 103 101 107 110 107 103 105 102 98 95 92 87 80 74 65 57 54 54 52 49 47 43 39 35 33
124 133 126 123 119 118 120 131 142 136 135 140 129 102 100 120 113 108 105 107 113 113 106 105 104 102 99 95 90 84 77 67 60 56 56 53 51 49 44 40 36 31 29
130 132 124 122 117 117 120 126 124 124 129 134 131 117 102 122 124 118 118 118 119 118 115 113 111 106 100 96 90 83 74 67 59 54 53 50 46 43 41 36 31 27 24
128 121 117 119 121 127 128 124 122 125 133 131 126 130 127 132 134 129 133 125 123 123 119 112 109 105 100 93 86 78 69 60 52 51 48 46 42 38 36 31 26 21 18
127 126 130 128 116 110 117 122 129 122 130 132 135 131 140 133 131 136 135 123 125 131 121 114 104 99 91 85 76 66 60 55 52 48 42 39 36 33 32 27 19 16 13
133 131 136 127 114 107 102 116 122 126 129 140 139 134 142 133 129 132 136 129 128 134 126 115 104 93 90 81 70 61 55 53 50 44 37 29 27 32 25 19 15 12 10
147 140 144 130 108 98 101 109 117 121 130 143 146 144 147 142 135 138 147 147 140 149 136 117 111 104 101 80 58 51 44 46 42 38 37 36 30 27 15 14 12 11 8
159 148 153 140 122 110 103 103 114 125 137 142 148 155 161 157 154 154 160 154 149 155 153 143 137 127 108 83 59 43 44 35 31 21 26 26 19 17 12 9 8 7 6
185 156 159 155 138 122 109 104 108 114 132 148 155 155 160 162 167 162 171 162 160 165 164 151 145 134 99 71 43 27 32 25 15 12 18 16 11 5 3 3 2 1 1
193 178 173 168 156 143 132 119 115 119 133 150 163 167 171 169 171 170 171 173 170 167 165 157 152 153 101 40 359 348 358 360 352 1 8 1 354 353 353 356 356 357 355
198 195 187 184 183 166 161 147 133 127 139 159 169 178 186 184 182 183 182 181 175 174 173 175 173 184 216 263 278 308 326 339 348 356 358 350 344 341 343 346 350 352 351
204 204 201 197 204 195 187 177 170 174 177 200 190 200 192 194 199 199 194 192 192 194 196 200 203 218 243 261 282 292 303 318 330 340 346 336 337 340 342 345 347 348 349
214 211 209 213 215 214 210 195 195 203 217 239 241 223 222 211 205 209 208 205 207 213 218 217 225 234 251 262 270 279 294 305 314 324 326 329 336 336 338 342 342 346 346
218 217 217 221 223 229 227 222 215 225 234 241 245 242 233 229 225 219 216 217 218 219 223 226 232 239 248 257 268 277 288 295 303 314 319 331 334 336 339 342 342 343 342
224 226 223 225 228 230 233 232 234 234 238 247 252 251 245 242 237 231 231 229 226 229 229 233 238 243 251 256 264 278 284 296 301 310 318 328 330 334 341 344 343 339 338
222 227 230 228 231 234 235 234 234 238 238 240 253 258 259 252 245 243 240 238 236 238 239 239 244 248 257 261 267 274 281 287 291 305 310 317 328 330 335 336 335 333 333
219 222 229 234 235 233 235 237 238 236 239 241 245 254 261 259 253 247 248 251 246 244 244 244 245 250 257 263 266 270 279 283 285 295 307 314 322 331 334 337 335 330 330
221 221 222 227 233 237 234 235 238 239 239 242 246 248 256 260 258 255 253 254 257 254 251 252 252 256 258 264 268 275 282 284 289 297 304 307 318 323 329 334 337 332 325
224 223 222 223 226 231 235 237 239 240 241 242 244 251 253 260 266 266 264 259 261 263 265 261 256 256 260 262 268 273 278 278 283 289 295 311 317 320 323 327 331 328 317
226 224 223 223 224 227 232 235 239 239 240 244 245 247 252 256 260 265 268 271 271 265 268 269 264 257 257 261 265 269 272 272 280 283 291 300 307 308 312 323 324 323 316